Regional Weather Roundup
Issued by NWS Newport/Morehead, NC

Current Version | Previous Version | Graphics & Text | Print | Product List | Glossary Off
Versions: 1 2 3 4 5 6 7 8 9 10 11 12 13 14 15 16 17 18 19 20 21 22 23 24 25 26 27 28 29 30 31 32 33 34 35 36 37 38 39 40 41 42 43 44 45 46 47 48 49 50

000
ASUS42 KMHX 302310
RWRMHX
WEATHER ROUNDUP FOR EASTERN NORTH CAROLINA
NATIONAL WEATHER SERVICE NEWPORT/MOREHEAD CITY NC
700 PM EDT TUE SEP 30 2014

NOTE: "FAIR" INDICATES FEW OR NO CLOUDS BELOW 12,000 FEET
WITH NO SIGNIFICANT WEATHER AND/OR OBSTRUCTIONS TO VISIBILITY

NCZ015>017-031-032-045>047-102-103-010000-
NORTH COAST

CITY           SKY/WX    TMP DP  RH WIND       PRES   REMARKS
EDENTON        CLEAR     70  65  84 NE3       29.87R
ELIZABETH CITY CLEAR     70  63  78 NE8       29.87R
KITTY HAWK     CLEAR     69  64  83 NE3       29.86R
MANTEO         CLEAR     69  64  83 NE7       29.87R

$$

NCZ045>047-081-094-103-104-010000-
CENTRAL COAST

CITY           SKY/WX    TMP DP  RH WIND       PRES   REMARKS
FRISCO         CLEAR     69  65  86 N8        29.84R
SWANQUARTER      N/A     70 N/A N/A NE3       29.82R

$$

NCZ095-097-098-100-101-010000-
SOUTHERN COAST

CITY           SKY/WX    TMP DP  RH WIND       PRES   REMARKS
BEAUFORT       CLEAR     71  64  78 NE6       29.85R
CEDAR ISLAND     N/A     73 N/A N/A NE14G21   29.88S
JACKSONVILLE   CLEAR     74  64  71 NE6       29.84R
NEWPORT        NOT AVBL
PINEY ISLAND   CLEAR     74  66  76 NE13      29.84S HAZE
WILMINGTON     PTCLDY    75  65  70 N5        29.84R


$$

NCZ011>013-027>030-043-044-078>080-089-090>093-098-010000-
COASTAL PLAIN

CITY           SKY/WX    TMP DP  RH WIND       PRES   REMARKS
AHOSKIE        CLEAR     67  64  89 CALM      29.88S
CLINTON        CLEAR     73  67  82 CALM      29.87R
ELIZABETHTOWN  CLEAR     74  65  72 CALM      29.86R
GOLDSBORO      CLEAR     73  68  86 CALM      29.85R
GREENVILLE     CLEAR     72  64  78 N5        29.89R
HAVELOCK       PTCLDY    72  65  78 NE7       29.86R
KENANSVILLE    CLEAR     72  63  72 N3        29.87R
KINSTON        CLEAR     72  66  83 N5        29.87R
NEW BERN       CLEAR     75  64  68 CALM      29.86R
RICHLANDS      PTCLDY    72  63  73 CALM      29.85S
ROANOKE RAPIDS NOT AVBL
ROCKY MOUNT    CLEAR     69  63  81 NW3       29.88R
WASHINGTON     CLEAR     71  65  79 CALM      29.86S
WHITEVILLE     CLEAR     73  65  77 CALM      29.85R

$$

AMZ130-135-150-152-154-156-158-170-250-252-270-ANZ085-086-088-633-658-670-010000-
MARINE OBSERVATIONS

STATION/POSITION TIME  TEMP    WIND        PRES    WAVE   SWELL
                       AIR SEA DIR/SP/G            HT/PER HT/PER
                 (UTC) (F)     (DEG/KT/KT) (MB)    (FT/S) (FT/S)
CHESAPEAKE LIGHT 2200   70      60/  9/ 10 1012.0
BUOY 44014       2300   71 74   20/ 12/ 14 1010.6    2/ 8   2/ 8
DUCK             2300   71 73   40/ 10/ 11 1010.5
2E DUCK          2300                        N/A     2/14   2/14
OREGON INLET     2300   70 73  360/  7/ 11 1011.0
BUOY 44095       2300      74                N/A     3/ 8
20E OREGON INLET NOT AVBL
HATTERAS CG      2300   72 76   20/ 15/ 18 1010.9
DIAMOND BUOY     2300   74     350/ 17/ 21 1009.8    4/ 4   2/ 8
CAPE LOOKOUT     2200   74      30/ 13/ 15 1010.0
BEAUFORT LAB     2300   74 75   20/  5/  7 1010.0
30 SE NEW RIVER  2200   76 80   40/ 14/ 16 1009.5
5 SE WRIGHTSVILL 2200   73 76   70/  8/ 10   N/A
BUOY 41002       2154   77 81  140/ 12/ 14 1007.5    3/ 6   2/ 6
BUOY 41004       2300   76 81   30/ 12/ 14 1010.1    4/ 6   3/ 6

$$


USA.gov is the U.S. government's official web portal to all federal, state and local government web resources and services.